Home   Weather   Auckland   Past weeks
Flag for New Zealand

Past Weather in Auckland, New Zealand — Yesterday and Last 2 Weeks

Now
66 °F

Partly cloudy.


Feels Like: 66 °F
Forecast: 74 / 65 °F
Wind: 16 mph from Southwest

Location: Auckland Airport

Current Time: Jan 18, 2019 at 12:37:20 am

Latest Report: Jan 18, 2019 at 12:00 am


Visibility: N/A

Pressure: 29.86 "Hg

Humidity: 83%

Dew Point: 61 °F

Location of AucklandLocation

Past Weather in Auckland — Graph

°F

Auckland Temperature Yesterday

Maximum temperature yesterday: 73 °F (at 1:00 pm)
Minimum temperature yesterday: 66 °F (at 1:30 am)
Average temperature yesterday: 69 °F

High & Low Weather Summary for the Past Weeks

 TemperatureHumidityPressure
High79 °F (Jan 9, 2:00 pm)100% (Jan 5, 6:00 am)30.15 "Hg (Jan 5, 6:00 am)
Low57 °F (Jan 14, 9:00 pm)51% (Jan 9, 11:30 am)29.68 "Hg (Jan 14, 3:30 pm)
Average69 °F78%29.98 "Hg
* Reported Jan 2 11:00 pm — Jan 17 11:00 pm, Auckland. Weather by CustomWeather, © 2019

Note: Actual official high and low records may vary slightly from our data, if they occured in-between our weather recording intervals... More about our weather records

Advertising

Auckland Weather History for the Previous 24 Hours

Scroll right to see more
 ConditionsComfort  
Time TempWeatherWind HumidityBarometerVisibility
11:00 pm
Thu, Jan 17
66 °FPassing clouds.20 mph83%29.86 "HgN/A
10:30 pm66 °FPassing clouds.17 mph83%29.86 "HgN/A
10:00 pm66 °FPassing clouds.17 mph83%29.83 "HgN/A
9:30 pm68 °FPassing clouds.18 mph78%29.83 "HgN/A
9:00 pm68 °FPassing clouds.16 mph73%29.83 "HgN/A
8:30 pm68 °FPartly sunny.18 mph78%29.83 "HgN/A
8:00 pm68 °FScattered clouds.21 mph73%29.80 "HgN/A
7:30 pm68 °FPartly sunny.20 mph78%29.80 "HgN/A
7:00 pm70 °FPartly sunny.18 mph73%29.80 "HgN/A
6:30 pm70 °FPartly sunny.23 mph69%29.80 "HgN/A
6:00 pm72 °FPartly sunny.20 mph73%29.80 "HgN/A
5:30 pm72 °FPartly sunny.18 mph73%29.80 "HgN/A
5:00 pm72 °FPartly sunny.20 mph69%29.80 "HgN/A
4:30 pm70 °FPartly sunny.18 mph73%29.80 "HgN/A
4:00 pm73 °FPartly sunny.20 mph69%29.80 "HgN/A
3:30 pm73 °FPartly sunny.18 mph69%29.80 "HgN/A
3:00 pm72 °FScattered clouds.17 mph69%29.80 "HgN/A
2:30 pm72 °FScattered clouds.18 mph73%29.80 "HgN/A
2:00 pm72 °FPassing clouds.20 mph73%29.80 "HgN/A
1:30 pm72 °FPassing clouds.20 mph73%29.80 "HgN/A
1:00 pm73 °FPassing clouds.17 mph69%29.83 "HgN/A
12:30 pm72 °FScattered clouds.20 mph69%29.83 "HgN/A
12:00 pm70 °FPartly sunny.18 mph73%29.83 "HgN/A
11:30 am70 °FPartly sunny.17 mph73%29.83 "HgN/A
11:00 am70 °FOvercast.20 mph73%29.83 "HgN/A
10:30 am68 °FOvercast.18 mph78%29.83 "HgN/A
10:00 am68 °FPartly sunny.18 mph83%29.83 "HgN/A
9:30 am68 °FOvercast.20 mph78%29.83 "HgN/A
9:00 am68 °FOvercast.18 mph83%29.80 "HgN/A
8:30 am68 °FOvercast.20 mph78%29.80 "HgN/A
8:00 am66 °FOvercast.16 mph83%29.80 "HgN/A
7:30 am66 °FOvercast.17 mph83%29.77 "HgN/A
7:00 am66 °FOvercast.15 mph83%29.77 "HgN/A
6:30 am66 °FPartly sunny.15 mph83%29.77 "HgN/A
6:00 am66 °FPassing clouds.12 mph88%29.77 "HgN/A
5:30 am66 °FPassing clouds.12 mph88%29.74 "HgN/A
5:00 am66 °FOvercast.8 mph88%29.74 "HgN/A
4:30 am66 °FPassing clouds.10 mph88%29.74 "HgN/A
4:00 am66 °FPartly cloudy.12 mph83%29.74 "HgN/A
3:30 am66 °FPassing clouds.13 mph83%29.74 "HgN/A
2:30 am66 °FMild.16 mph88%29.74 "HgN/A
2:00 am66 °FMild.17 mph88%29.77 "HgN/A
1:30 am66 °FPartly cloudy.17 mph88%29.77 "HgN/A
1:00 am68 °FPassing clouds.17 mph83%29.77 "HgN/A
12:30 am68 °FOvercast.17 mph83%29.77 "HgN/A
12:00 am68 °FOvercast.14 mph83%29.77 "HgN/A
Weather by CustomWeather, © 2019

See weather overview